Weather History for KDRO - February, 2015

Change the Weather History Date:

Monday, February 9, 2015

  Actual Average Record
Temperature  
Mean Temperature 42 °F 27 °F  
Max Temperature 60 °F 41 °F - ()
Min Temperature 24 °F 13 °F - ()
Degree Days  
Heating Degree Days 23 38  
Month to date heating degree days 229 351  
Since 1 July heating degree days 3860 4505  
Cooling Degree Days 0 0  
Month to date cooling degree days 0 0  
Year to date cooling degree days 0 0  
Moisture  
Dew Point 26 °F    
Average Humidity 61    
Maximum Humidity 92    
Minimum Humidity 30    
Precipitation  
Precipitation 0.00 in 0.04 in - ()
Month to date precipitation 0.00 0.36  
Year to date precipitation 1.71 1.48  
Sea Level Pressure  
Sea Level Pressure 30.22 in    
Wind  
Wind Speed 5 mph (NNE)    
Max Wind Speed 16 mph    
Max Gust Speed 20 mph    
Visibility 10 miles    
Events      
T = Trace of Precipitation, MM = Missing Value Source: NWS Daily Summary

Daily Weather History Graph

Daily Weather History Graph

Search for Another Location

Airport or City:

Trip Planner

Search our weather history database for the weather conditions in past years. The results will help you decide how hot, cold, wet, or windy it might be!

Date:

Astronomy

Feb. 09, 2015 Rise Set
Actual Time 7:06 AM MST 5:44 PM MST
Civil Twilight 6:39 AM MST 6:11 PM MST
Nautical Twilight 6:08 AM MST 6:42 PM MST
Astronomical Twilight 5:38 AM MST 7:12 PM MST
Moon 11:13 PM MST (2/9) 9:54 AM MST (2/9)
Length of Visible Light 11h 31m
Length of Day
10h 37m
Waning Gibbous, 72% of the Moon is Illuminated
Feb 9
Waning Gibbous
Feb 11
Last Quarter
Feb 18
New
Feb 25
First Quarter
Mar 5
Full

Hourly Weather History & Observations

Time (MST) Temp. Windchill Dew Point Humidity Pressure Visibility Wind Dir Wind Speed Gust Speed Precip Events Conditions
12:53 AM 32.0 °F 27.5 °F 26.1 °F 79% 30.26 in 10.0 mi North 4.6 mph - N/A   Clear
1:53 AM 30.0 °F 25.2 °F 25.0 °F 82% 30.26 in 10.0 mi NNE 4.6 mph - N/A   Clear
2:53 AM 30.0 °F 26.5 °F 25.0 °F 82% 30.25 in 10.0 mi ENE 3.5 mph - N/A   Clear
3:53 AM 27.0 °F 21.6 °F 24.1 °F 89% 30.27 in 10.0 mi NE 4.6 mph - N/A   Clear
4:53 AM 27.0 °F 21.6 °F 24.1 °F 89% 30.27 in 10.0 mi NE 4.6 mph - N/A   Clear
5:53 AM 28.0 °F - 24.1 °F 85% 30.30 in 10.0 mi Calm Calm - N/A   Clear
6:53 AM 25.0 °F 20.7 °F 23.0 °F 92% 30.33 in 10.0 mi East 3.5 mph - N/A   Clear
7:53 AM 30.0 °F 26.5 °F 26.1 °F 85% 30.36 in 10.0 mi NE 3.5 mph - N/A   Clear
8:53 AM 35.1 °F 31.0 °F 28.0 °F 76% 30.35 in 10.0 mi East 4.6 mph - N/A   Clear
9:53 AM 41.0 °F - 30.0 °F 65% 30.33 in 10.0 mi Calm Calm - N/A   Clear
10:53 AM 48.0 °F - 30.0 °F 50% 30.29 in 10.0 mi Calm Calm - N/A   Clear
11:53 AM 54.0 °F - 30.9 °F 41% 30.22 in 10.0 mi Variable 4.6 mph - N/A   Clear
12:53 PM 55.9 °F - 32.0 °F 40% 30.19 in 10.0 mi Calm Calm - N/A   Clear
1:53 PM 57.0 °F - 30.0 °F 36% 30.16 in 10.0 mi SSW 6.9 mph - N/A   Clear
2:53 PM 59.0 °F - 28.0 °F 31% 30.12 in 10.0 mi WSW 10.4 mph - N/A   Clear
3:53 PM 59.0 °F - 28.9 °F 32% 30.13 in 10.0 mi WSW 11.5 mph - N/A   Clear
4:53 PM 57.0 °F - 27.0 °F 32% 30.13 in 10.0 mi West 10.4 mph - N/A   Clear
5:53 PM 52.0 °F - 25.0 °F 35% 30.15 in 10.0 mi West 10.4 mph - N/A   Clear
6:53 PM 48.0 °F - 24.1 °F 39% 30.19 in 10.0 mi West 3.5 mph - N/A   Clear
7:53 PM 42.1 °F 38.4 °F 26.1 °F 53% 30.20 in 10.0 mi North 5.8 mph - N/A   Clear
8:53 PM 35.1 °F 29.3 °F 25.0 °F 67% 30.20 in 10.0 mi NNE 6.9 mph - N/A   Clear
9:53 PM 35.1 °F - 24.1 °F 64% 30.17 in 10.0 mi Calm Calm - N/A   Clear
10:53 PM 33.1 °F 27.7 °F 21.9 °F 64% 30.14 in 10.0 mi NNE 5.8 mph - N/A   Clear
11:53 PM 30.0 °F 24.1 °F 21.9 °F 72% 30.12 in 10.0 mi NNE 5.8 mph - N/A   Clear